YAOGAN-37 (55244 NORAD) Tracking and Keplerian Element Data

This shows tracking and keplerian element data for the satellite.

Feedback or suggestion? Click here.




ElementValue
Catalog55244
NameYAOGAN-37
Epoch Orbit1086
Epoch Day85.13148576
Epoch Year2023
RAAN168.5099
Inclination43.2018
Eccentricity0.0007412
Argument of Perigee347.9735
Mean Anonmoly87.7841
Mean Motion15.17770342
Decay Rate0.00018105
L11 55244U 23006C 23085.13148576 .00018105 00000+0 88894-3 0 9998
L22 55244 43.2018 168.5099 0007412 347.9735 87.7841 15.17770342 10867



Live tracking and technical data element details for YAOGAN-37 (NORAD 55244). YAOGAN-37 can be tracked NOW for your location showing map with azimuth and elevation plus other details from your city location.







IsCatalogInMostPopularTable: catalog: 55244, numindb: 15
Update: records affected: 1



GetName: 55244 YAOGAN-37

Hit Count: updated at: Mon, 27 Mar 2023 08:06:31 GMT